Time,TemperatureF,DewpointF,PressureIn,WindDirection,WindDirectionDegrees,WindSpeedMPH,WindSpeedGustMPH,Humidity,HourlyPrecipIn,Conditions,Clouds,dailyrainin,SoftwareType,DateUTC
2013-09-24 00:00:00,74.2,73.9,29.95,South,180,0.0,0.0,99,0.00,,,0.45,Wunderground v.1.15,2013-09-24 04:00:00,
2013-09-24 00:05:00,74.3,74.0,29.95,ESE,119,0.0,0.0,99,0.00,,,0.00,Wunderground v.1.15,2013-09-24 04:05:00,
2013-09-24 00:10:00,74.2,73.9,29.95,South,178,0.0,0.0,99,0.00,,,0.00,Wunderground v.1.15,2013-09-24 04:10:00,
2013-09-24 00:15:00,74.2,73.9,29.95,SSE,165,0.0,0.0,99,0.00,,,0.00,Wunderground v.1.15,2013-09-24 04:15:00,
2013-09-24 00:20:00,74.2,73.9,29.94,SE,135,0.0,0.0,99,0.00,,,0.00,Wunderground v.1.15,2013-09-24 04:20:00,
2013-09-24 00:25:00,74.2,73.9,29.94,SE,133,0.0,1.0,99,0.00,,,0.00,Wunderground v.1.15,2013-09-24 04:25:00,
2013-09-24 00:35:00,74.2,73.9,29.94,ESE,108,0.0,0.0,99,0.00,,,0.00,Wunderground v.1.15,2013-09-24 04:35:00,
2013-09-24 00:45:00,74.1,73.8,29.94,ESE,110,1.0,1.0,99,0.00,,,0.00,Wunderground v.1.15,2013-09-24 04:45:00,
2013-09-24 00:50:00,74.2,73.9,29.94,SE,140,1.0,1.0,99,0.00,,,0.00,Wunderground v.1.15,2013-09-24 04:50:00,
2013-09-24 01:00:00,74.2,73.6,29.93,ESE,123,0.0,1.0,98,0.00,,,0.00,Wunderground v.1.15,2013-09-24 05:00:00,
2013-09-24 01:05:00,74.2,73.6,29.93,SSE,153,1.0,1.0,98,0.00,,,0.00,Wunderground v.1.15,2013-09-24 05:05:00,
2013-09-24 01:15:00,74.1,73.5,29.92,South,174,1.0,1.0,98,0.00,,,0.00,Wunderground v.1.15,2013-09-24 05:15:00,
2013-09-24 01:20:00,74.1,73.5,29.92,SE,127,1.0,2.0,98,0.00,,,0.00,Wunderground v.1.15,2013-09-24 05:20:00,
2013-09-24 01:30:00,74.1,73.5,29.92,East,90,1.0,1.0,98,0.00,,,0.00,Wunderground v.1.15,2013-09-24 05:30:00,
2013-09-24 01:35:00,74.1,73.5,29.92,East,89,1.0,1.0,98,0.00,,,0.00,Wunderground v.1.15,2013-09-24 05:35:00,
2013-09-24 01:40:00,74.0,73.4,29.92,SSW,198,1.0,1.0,98,0.00,,,0.00,Wunderground v.1.15,2013-09-24 05:40:00,
2013-09-24 01:50:00,74.1,73.5,29.92,South,172,0.0,0.0,98,0.00,,,0.00,Wunderground v.1.15,2013-09-24 05:50:00,
2013-09-24 01:55:00,74.1,73.5,29.92,South,172,0.0,0.0,98,0.00,,,0.00,Wunderground v.1.15,2013-09-24 05:55:00,
2013-09-24 02:00:00,74.0,73.4,29.92,SSE,159,0.0,0.0,98,0.00,,,0.00,Wunderground v.1.15,2013-09-24 06:00:00,
2013-09-24 02:10:00,74.1,73.5,29.92,SSE,163,0.0,0.0,98,0.00,,,0.00,Wunderground v.1.15,2013-09-24 06:10:00,
2013-09-24 02:15:00,74.1,73.5,29.92,SE,140,0.0,0.0,98,0.00,,,0.00,Wunderground v.1.15,2013-09-24 06:15:00,
2013-09-24 02:20:00,74.1,73.5,29.92,South,173,0.0,0.0,98,0.00,,,0.00,Wunderground v.1.15,2013-09-24 06:20:00,
2013-09-24 02:30:00,74.2,73.6,29.92,SE,130,0.0,0.0,98,0.00,,,0.00,Wunderground v.1.15,2013-09-24 06:30:00,
2013-09-24 02:35:00,74.2,73.9,29.92,SE,130,0.0,0.0,99,0.00,,,0.00,Wunderground v.1.15,2013-09-24 06:35:00,
2013-09-24 02:45:00,74.3,74.0,29.92,SE,130,0.0,0.0,99,0.00,,,0.00,Wunderground v.1.15,2013-09-24 06:45:00,
2013-09-24 02:50:00,74.3,74.0,29.92,SSW,194,0.0,0.0,99,0.00,,,0.00,Wunderground v.1.15,2013-09-24 06:50:00,
2013-09-24 03:00:00,74.3,74.0,29.91,East,100,0.0,0.0,99,0.00,,,0.00,Wunderground v.1.15,2013-09-24 07:00:00,
2013-09-24 03:05:00,74.3,74.0,29.91,South,169,0.0,1.0,99,0.00,,,0.00,Wunderground v.1.15,2013-09-24 07:05:00,
2013-09-24 03:15:00,74.3,74.0,29.91,ENE,68,0.0,0.0,99,0.00,,,0.00,Wunderground v.1.15,2013-09-24 07:15:00,
2013-09-24 03:20:00,74.3,74.0,29.91,ENE,68,0.0,0.0,99,0.00,,,0.00,Wunderground v.1.15,2013-09-24 07:20:00,
2013-09-24 03:25:00,74.3,74.0,29.90,ENE,68,0.0,0.0,99,0.00,,,0.00,Wunderground v.1.15,2013-09-24 07:25:00,
2013-09-24 03:35:00,74.3,74.0,29.90,South,171,0.0,0.0,99,0.00,,,0.00,Wunderground v.1.15,2013-09-24 07:35:00,
2013-09-24 03:40:00,74.3,74.0,29.91,SE,146,0.0,2.0,99,0.00,,,0.00,Wunderground v.1.15,2013-09-24 07:40:00,
2013-09-24 03:45:00,74.3,74.0,29.91,SSE,163,0.0,2.0,99,0.00,,,0.00,Wunderground v.1.15,2013-09-24 07:45:00,
2013-09-24 03:55:00,74.4,74.1,29.91,SE,140,0.0,1.0,99,0.00,,,0.00,Wunderground v.1.15,2013-09-24 07:55:00,
2013-09-24 04:00:00,74.4,74.1,29.91,South,178,0.0,0.0,99,0.00,,,0.00,Wunderground v.1.15,2013-09-24 08:00:00,
2013-09-24 04:10:00,74.4,74.1,29.91,South,184,0.0,0.0,99,0.00,,,0.01,Wunderground v.1.15,2013-09-24 08:10:00,
2013-09-24 04:15:00,74.4,74.1,29.91,South,184,0.0,0.0,99,0.00,,,0.01,Wunderground v.1.15,2013-09-24 08:15:00,
2013-09-24 04:20:00,74.3,74.0,29.91,SE,143,0.0,0.0,99,0.00,,,0.01,Wunderground v.1.15,2013-09-24 08:20:00,
2013-09-24 04:30:00,74.3,74.0,29.90,SE,136,0.0,0.0,99,0.04,,,0.02,Wunderground v.1.15,2013-09-24 08:30:00,
2013-09-24 04:35:00,74.3,74.0,29.90,SE,145,0.0,0.0,99,0.04,,,0.02,Wunderground v.1.15,2013-09-24 08:35:00,
2013-09-24 04:40:00,74.3,74.0,29.90,SE,145,0.0,0.0,99,0.04,,,0.03,Wunderground v.1.15,2013-09-24 08:40:00,
2013-09-24 04:50:00,74.3,74.0,29.90,SSE,165,0.0,2.0,99,0.04,,,0.03,Wunderground v.1.15,2013-09-24 08:50:00,
2013-09-24 05:00:00,74.3,74.0,29.89,SE,144,1.0,1.0,99,0.00,,,0.03,Wunderground v.1.15,2013-09-24 09:00:00,
2013-09-24 05:05:00,74.3,74.0,29.90,South,184,0.0,1.0,99,0.00,,,0.03,Wunderground v.1.15,2013-09-24 09:05:00,
2013-09-24 05:15:00,74.3,74.0,29.90,SE,142,1.0,1.0,99,0.00,,,0.04,Wunderground v.1.15,2013-09-24 09:15:00,
2013-09-24 05:20:00,74.4,74.1,29.90,SSE,148,1.0,1.0,99,0.00,,,0.04,Wunderground v.1.15,2013-09-24 09:20:00,
2013-09-24 05:30:00,74.4,74.1,29.90,SE,140,0.0,0.0,99,0.00,,,0.04,Wunderground v.1.15,2013-09-24 09:30:00,
2013-09-24 05:35:00,74.4,74.1,29.89,SE,140,0.0,1.0,99,0.00,,,0.04,Wunderground v.1.15,2013-09-24 09:35:00,
2013-09-24 05:45:00,74.4,74.1,29.89,SW,214,0.0,0.0,99,0.00,,,0.04,Wunderground v.1.15,2013-09-24 09:45:00,
2013-09-24 05:50:00,74.4,74.1,29.89,SSW,209,1.0,1.0,99,0.00,,,0.04,Wunderground v.1.15,2013-09-24 09:50:00,
2013-09-24 06:00:00,74.4,74.1,29.89,SSE,150,1.0,1.0,99,0.00,,,0.04,Wunderground v.1.15,2013-09-24 10:00:00,
2013-09-24 06:10:00,74.4,74.1,29.89,SSW,207,1.0,1.0,99,0.00,,,0.04,Wunderground v.1.15,2013-09-24 10:10:00,
2013-09-24 06:15:00,74.4,74.1,29.89,South,185,1.0,1.0,99,0.00,,,0.04,Wunderground v.1.15,2013-09-24 10:15:00,
2013-09-24 06:20:00,74.4,74.1,29.90,SW,219,1.0,1.0,99,0.00,,,0.04,Wunderground v.1.15,2013-09-24 10:20:00,
2013-09-24 06:30:00,74.4,74.1,29.90,SW,235,1.0,2.0,99,0.00,,,0.04,Wunderground v.1.15,2013-09-24 10:30:00,
2013-09-24 06:35:00,74.3,74.0,29.90,SSE,147,1.0,2.0,99,0.00,,,0.04,Wunderground v.1.15,2013-09-24 10:35:00,
2013-09-24 06:45:00,74.3,74.0,29.90,SW,228,1.0,1.0,99,0.00,,,0.04,Wunderground v.1.15,2013-09-24 10:45:00,
2013-09-24 06:50:00,74.2,73.9,29.91,South,171,0.0,5.0,99,0.00,,,0.04,Wunderground v.1.15,2013-09-24 10:50:00,
2013-09-24 06:55:00,74.2,73.9,29.91,South,178,1.0,5.0,99,0.00,,,0.04,Wunderground v.1.15,2013-09-24 10:55:00,
2013-09-24 07:05:00,74.2,73.9,29.91,SW,225,1.0,2.0,99,0.00,,,0.04,Wunderground v.1.15,2013-09-24 11:05:00,
2013-09-24 07:10:00,74.1,73.8,29.91,SW,216,1.0,1.0,99,0.00,,,0.04,Wunderground v.1.15,2013-09-24 11:10:00,
2013-09-24 07:20:00,74.0,73.7,29.91,South,173,1.0,1.0,99,0.00,,,0.04,Wunderground v.1.15,2013-09-24 11:20:00,
2013-09-24 07:30:00,74.0,73.7,29.91,SSW,211,1.0,1.0,99,0.00,,,0.05,Wunderground v.1.15,2013-09-24 11:30:00,
2013-09-24 07:35:00,74.0,73.7,29.91,SSE,166,0.0,1.0,99,0.00,,,0.05,Wunderground v.1.15,2013-09-24 11:35:00,
2013-09-24 07:40:00,73.9,73.6,29.91,SW,234,1.0,1.0,99,0.00,,,0.05,Wunderground v.1.15,2013-09-24 11:40:00,
2013-09-24 07:50:00,73.8,73.5,29.91,SW,223,0.0,0.0,99,0.00,,,0.05,Wunderground v.1.15,2013-09-24 11:50:00,
2013-09-24 07:55:00,73.8,73.5,29.90,SSW,202,0.0,0.0,99,0.00,,,0.05,Wunderground v.1.15,2013-09-24 11:55:00,
2013-09-24 08:00:00,73.8,73.5,29.91,South,182,1.0,1.0,99,0.00,,,0.06,Wunderground v.1.15,2013-09-24 12:00:00,
2013-09-24 08:10:00,73.7,73.4,29.90,West,280,2.0,2.0,99,0.08,,,0.07,Wunderground v.1.15,2013-09-24 12:10:00,
2013-09-24 08:20:00,73.7,73.4,29.90,SW,221,2.0,2.0,99,0.12,,,0.09,Wunderground v.1.15,2013-09-24 12:20:00,
2013-09-24 08:30:00,73.7,73.4,29.90,WSW,238,2.0,2.0,99,0.11,,,0.11,Wunderground v.1.15,2013-09-24 12:30:00,
2013-09-24 08:35:00,73.7,73.4,29.90,SW,232,2.0,2.0,99,0.15,,,0.13,Wunderground v.1.15,2013-09-24 12:35:00,
2013-09-24 08:40:00,73.8,73.5,29.90,SW,225,2.0,2.0,99,0.10,,,0.14,Wunderground v.1.15,2013-09-24 12:40:00,
2013-09-24 08:50:00,73.8,73.5,29.90,South,174,1.0,1.0,99,0.10,,,0.15,Wunderground v.1.15,2013-09-24 12:50:00,
2013-09-24 09:00:00,73.8,73.5,29.90,SSW,194,1.0,1.0,99,0.10,,,0.17,Wunderground v.1.15,2013-09-24 13:00:00,
2013-09-24 09:05:00,73.8,73.5,29.90,SW,232,1.0,1.0,99,0.07,,,0.17,Wunderground v.1.15,2013-09-24 13:05:00,
2013-09-24 09:10:00,73.8,73.5,29.90,SSW,194,1.0,4.0,99,0.07,,,0.18,Wunderground v.1.15,2013-09-24 13:10:00,
2013-09-24 09:15:00,73.8,73.5,29.91,ESE,117,1.0,4.0,99,0.06,,,0.18,Wunderground v.1.15,2013-09-24 13:15:00,
2013-09-24 09:25:00,73.9,73.6,29.91,SSW,198,0.0,1.0,99,0.06,,,0.19,Wunderground v.1.15,2013-09-24 13:25:00,
2013-09-24 09:30:00,74.0,73.7,29.91,SSW,213,0.0,0.0,99,0.05,,,0.20,Wunderground v.1.15,2013-09-24 13:30:00,
2013-09-24 09:35:00,74.0,73.7,29.92,SSW,213,0.0,0.0,99,0.05,,,0.20,Wunderground v.1.15,2013-09-24 13:35:00,
2013-09-24 09:45:00,74.1,73.8,29.92,SSW,213,0.0,0.0,99,0.06,,,0.21,Wunderground v.1.15,2013-09-24 13:45:00,
2013-09-24 09:50:00,74.2,73.9,29.92,SSW,213,0.0,0.0,99,0.05,,,0.21,Wunderground v.1.15,2013-09-24 13:50:00,
2013-09-24 10:00:00,74.4,74.1,29.92,SSW,213,0.0,0.0,99,0.00,,,0.21,Wunderground v.1.15,2013-09-24 14:00:00,
2013-09-24 10:05:00,74.5,74.2,29.92,SSW,213,0.0,0.0,99,0.00,,,0.21,Wunderground v.1.15,2013-09-24 14:05:00,
2013-09-24 10:15:00,74.8,74.5,29.92,SSW,213,0.0,0.0,99,0.00,,,0.21,Wunderground v.1.15,2013-09-24 14:15:00,
2013-09-24 10:20:00,74.8,74.5,29.92,SSW,213,0.0,0.0,99,0.00,,,0.21,Wunderground v.1.15,2013-09-24 14:20:00,
2013-09-24 10:30:00,74.9,74.6,29.92,SSW,213,0.0,0.0,99,0.00,,,0.21,Wunderground v.1.15,2013-09-24 14:30:00,
2013-09-24 10:35:00,75.0,74.7,29.92,SSW,213,0.0,0.0,99,0.00,,,0.21,Wunderground v.1.15,2013-09-24 14:35:00,
2013-09-24 10:45:00,75.2,74.9,29.92,SSW,213,0.0,0.0,99,0.00,,,0.21,Wunderground v.1.15,2013-09-24 14:45:00,
2013-09-24 10:50:00,75.2,74.9,29.92,SSW,213,0.0,0.0,99,0.00,,,0.21,Wunderground v.1.15,2013-09-24 14:50:00,
2013-09-24 11:00:00,75.5,75.2,29.93,SSW,213,0.0,0.0,99,0.00,,,0.21,Wunderground v.1.15,2013-09-24 15:00:00,
2013-09-24 11:05:00,75.6,75.3,29.92,SSW,213,0.0,0.0,99,0.00,,,0.21,Wunderground v.1.15,2013-09-24 15:05:00,
2013-09-24 11:15:00,75.7,75.4,29.92,SSW,213,0.0,0.0,99,0.00,,,0.21,Wunderground v.1.15,2013-09-24 15:15:00,
2013-09-24 11:20:00,75.8,75.5,29.92,SSW,213,0.0,0.0,99,0.00,,,0.21,Wunderground v.1.15,2013-09-24 15:20:00,
2013-09-24 11:25:00,76.0,75.7,29.92,SSW,212,0.0,0.0,99,0.00,,,0.21,Wunderground v.1.15,2013-09-24 15:25:00,
2013-09-24 11:35:00,76.2,75.9,29.91,SSE,166,0.0,0.0,99,0.00,,,0.21,Wunderground v.1.15,2013-09-24 15:35:00,
2013-09-24 11:45:00,76.7,76.4,29.91,South,182,0.0,0.0,99,0.00,,,0.21,Wunderground v.1.15,2013-09-24 15:45:00,
2013-09-24 11:50:00,76.9,76.6,29.91,SW,232,0.0,0.0,99,0.00,,,0.21,Wunderground v.1.15,2013-09-24 15:50:00,
2013-09-24 11:55:00,77.0,76.4,29.91,SW,219,1.0,1.0,98,0.00,,,0.21,Wunderground v.1.15,2013-09-24 15:55:00,
2013-09-24 12:00:00,77.2,76.3,29.91,WSW,240,1.0,1.0,97,0.00,,,0.21,Wunderground v.1.15,2013-09-24 16:00:00,
2013-09-24 12:10:00,77.5,76.3,29.91,WSW,244,1.0,1.0,96,0.00,,,0.21,Wunderground v.1.15,2013-09-24 16:10:00,
2013-09-24 12:20:00,78.0,76.5,29.91,SSW,192,1.0,1.0,95,0.00,,,0.21,Wunderground v.1.15,2013-09-24 16:20:00,
2013-09-24 12:25:00,78.2,76.3,29.91,SSE,151,1.0,1.0,94,0.00,,,0.21,Wunderground v.1.15,2013-09-24 16:25:00,
2013-09-24 12:30:00,78.2,76.0,29.91,West,271,1.0,1.0,93,0.00,,,0.21,Wunderground v.1.15,2013-09-24 16:30:00,
2013-09-24 12:40:00,78.4,76.2,29.91,SSE,159,1.0,2.0,93,0.00,,,0.21,Wunderground v.1.15,2013-09-24 16:40:00,
2013-09-24 12:50:00,78.7,76.2,29.90,South,188,1.0,3.0,92,0.00,,,0.21,Wunderground v.1.15,2013-09-24 16:50:00,
2013-09-24 13:00:00,78.9,76.4,29.90,SW,214,1.0,1.0,92,0.00,,,0.21,Wunderground v.1.15,2013-09-24 17:00:00,
2013-09-24 13:05:00,78.9,76.7,29.90,SW,217,1.0,1.0,93,0.00,,,0.21,Wunderground v.1.15,2013-09-24 17:05:00,
2013-09-24 13:15:00,79.1,76.6,29.90,South,175,1.0,1.0,92,0.00,,,0.21,Wunderground v.1.15,2013-09-24 17:15:00,
2013-09-24 13:25:00,79.6,76.7,29.89,South,188,1.0,1.0,91,0.00,,,0.21,Wunderground v.1.15,2013-09-24 17:25:00,
2013-09-24 13:30:00,79.7,76.2,29.89,WSW,242,2.0,3.0,89,0.00,,,0.21,Wunderground v.1.15,2013-09-24 17:30:00,
2013-09-24 13:35:00,79.8,76.3,29.89,SW,217,1.0,3.0,89,0.00,,,0.21,Wunderground v.1.15,2013-09-24 17:35:00,
2013-09-24 13:45:00,79.9,76.4,29.88,SSW,207,1.0,1.0,89,0.00,,,0.21,Wunderground v.1.15,2013-09-24 17:45:00,
2013-09-24 13:50:00,80.0,76.1,29.88,WSW,244,0.0,0.0,88,0.00,,,0.21,Wunderground v.1.15,2013-09-24 17:50:00,
2013-09-24 14:00:00,80.7,76.5,29.87,SSW,200,1.0,3.0,87,0.00,,,0.21,Wunderground v.1.15,2013-09-24 18:00:00,
2013-09-24 14:05:00,80.9,76.3,29.87,SW,234,2.0,3.0,86,0.00,,,0.21,Wunderground v.1.15,2013-09-24 18:05:00,
2013-09-24 14:15:00,81.1,77.5,29.87,SW,225,1.0,1.0,89,0.00,,,0.21,Wunderground v.1.15,2013-09-24 18:15:00,
2013-09-24 14:20:00,81.2,76.6,29.87,SSE,159,1.0,5.0,86,0.00,,,0.21,Wunderground v.1.15,2013-09-24 18:20:00,
2013-09-24 14:30:00,81.5,76.2,29.86,WSW,258,2.0,2.0,84,0.00,,,0.22,Wunderground v.1.15,2013-09-24 18:30:00,
2013-09-24 14:35:00,81.3,76.4,29.86,SSE,167,2.0,3.0,85,0.00,,,0.22,Wunderground v.1.15,2013-09-24 18:35:00,
2013-09-24 14:40:00,81.4,76.1,29.85,ESE,119,2.0,2.0,84,0.00,,,0.22,Wunderground v.1.15,2013-09-24 18:40:00,
2013-09-24 14:45:00,81.7,76.7,29.85,SW,215,2.0,2.0,85,0.00,,,0.22,Wunderground v.1.15,2013-09-24 18:45:00,
2013-09-24 14:55:00,81.9,76.6,29.85,SW,223,2.0,2.0,84,0.00,,,0.22,Wunderground v.1.15,2013-09-24 18:55:00,
2013-09-24 15:00:00,81.8,76.1,29.85,South,176,2.0,2.0,83,0.00,,,0.22,Wunderground v.1.15,2013-09-24 19:00:00,
2013-09-24 15:10:00,81.3,75.6,29.85,SSW,209,2.0,2.0,83,0.00,,,0.22,Wunderground v.1.15,2013-09-24 19:10:00,
2013-09-24 15:15:00,81.3,75.6,29.84,SW,227,1.0,2.0,83,0.00,,,0.22,Wunderground v.1.15,2013-09-24 19:15:00,
2013-09-24 15:25:00,82.6,76.9,29.84,SW,218,1.0,1.0,83,0.00,,,0.22,Wunderground v.1.15,2013-09-24 19:25:00,
2013-09-24 15:35:00,83.4,77.0,29.84,SW,231,1.0,2.0,81,0.00,,,0.22,Wunderground v.1.15,2013-09-24 19:35:00,
2013-09-24 15:40:00,83.3,76.9,29.85,SSW,198,2.0,2.0,81,0.00,,,0.22,Wunderground v.1.15,2013-09-24 19:40:00,
2013-09-24 15:45:00,83.2,77.1,29.84,WSW,245,2.0,2.0,82,0.00,,,0.22,Wunderground v.1.15,2013-09-24 19:45:00,
2013-09-24 15:55:00,83.7,77.6,29.84,West,271,2.0,4.0,82,0.00,,,0.22,Wunderground v.1.15,2013-09-24 19:55:00,
2013-09-24 16:05:00,83.9,77.4,29.84,ESE,120,1.0,2.0,81,0.00,,,0.22,Wunderground v.1.15,2013-09-24 20:05:00,
2013-09-24 16:10:00,84.0,77.9,29.84,SSW,211,1.0,3.0,82,0.00,,,0.22,Wunderground v.1.15,2013-09-24 20:10:00,
2013-09-24 16:20:00,83.6,77.1,29.83,South,179,2.0,4.0,81,0.00,,,0.22,Wunderground v.1.15,2013-09-24 20:20:00,
2013-09-24 16:30:00,83.1,77.4,29.83,SSW,208,1.0,1.0,83,0.00,,,0.22,Wunderground v.1.15,2013-09-24 20:30:00,
2013-09-24 16:35:00,83.0,77.3,29.83,SW,221,1.0,3.0,83,0.00,,,0.22,Wunderground v.1.15,2013-09-24 20:35:00,
2013-09-24 16:45:00,83.1,77.4,29.83,West,260,1.0,1.0,83,0.00,,,0.22,Wunderground v.1.15,2013-09-24 20:45:00,
2013-09-24 16:50:00,83.0,77.3,29.83,ESE,111,1.0,1.0,83,0.00,,,0.22,Wunderground v.1.15,2013-09-24 20:50:00,
2013-09-24 16:55:00,82.8,77.1,29.83,South,171,2.0,2.0,83,0.00,,,0.22,Wunderground v.1.15,2013-09-24 20:55:00,
2013-09-24 17:05:00,82.7,77.0,29.82,WSW,238,1.0,2.0,83,0.00,,,0.22,Wunderground v.1.15,2013-09-24 21:05:00,
2013-09-24 17:15:00,82.7,77.4,29.83,SSE,155,1.0,2.0,84,0.00,,,0.22,Wunderground v.1.15,2013-09-24 21:15:00,
2013-09-24 17:20:00,82.6,77.3,29.82,South,171,1.0,1.0,84,0.00,,,0.22,Wunderground v.1.15,2013-09-24 21:20:00,
2013-09-24 17:30:00,82.5,77.5,29.83,SSW,208,1.0,2.0,85,0.00,,,0.22,Wunderground v.1.15,2013-09-24 21:30:00,
2013-09-24 17:35:00,82.3,77.3,29.83,South,172,1.0,2.0,85,0.00,,,0.22,Wunderground v.1.15,2013-09-24 21:35:00,
2013-09-24 17:45:00,82.0,77.0,29.82,SSW,210,1.0,1.0,85,0.00,,,0.22,Wunderground v.1.15,2013-09-24 21:45:00,
2013-09-24 17:55:00,81.4,77.2,29.83,SE,138,1.0,2.0,87,0.00,,,0.22,Wunderground v.1.15,2013-09-24 21:55:00,
2013-09-24 18:00:00,81.1,77.2,29.83,SSW,211,1.0,1.0,88,0.00,,,0.22,Wunderground v.1.15,2013-09-24 22:00:00,
2013-09-24 18:10:00,75.1,71.6,29.80,NW,314,7.0,7.0,89,1.13,,,0.51,Wunderground v.1.15,2013-09-24 22:10:00,
2013-09-24 18:15:00,72.8,70.7,29.86,North,350,9.0,9.0,93,2.20,,,0.62,Wunderground v.1.15,2013-09-24 22:15:00,
2013-09-24 18:25:00,71.7,70.8,29.87,North,355,4.0,6.0,97,0.71,,,0.82,Wunderground v.1.15,2013-09-24 22:25:00,
2013-09-24 18:30:00,71.4,70.2,29.87,NW,326,3.0,3.0,96,0.40,,,0.88,Wunderground v.1.15,2013-09-24 22:30:00,
2013-09-24 18:40:00,71.3,70.4,29.87,NW,324,1.0,1.0,97,0.87,,,0.93,Wunderground v.1.15,2013-09-24 22:40:00,
2013-09-24 18:50:00,71.2,70.3,29.86,NW,324,0.0,0.0,97,0.09,,,0.95,Wunderground v.1.15,2013-09-24 22:50:00,
2013-09-24 18:55:00,71.1,70.2,29.84,SE,138,1.0,2.0,97,1.14,,,1.05,Wunderground v.1.15,2013-09-24 22:55:00,
2013-09-24 19:00:00,71.0,70.1,29.84,SE,144,1.0,1.0,97,0.23,,,1.07,Wunderground v.1.15,2013-09-24 23:00:00,
2013-09-24 19:10:00,70.9,70.3,29.85,SE,144,0.0,0.0,98,0.05,,,1.07,Wunderground v.1.15,2013-09-24 23:10:00,
2013-09-24 19:15:00,70.8,70.2,29.86,SE,144,0.0,0.0,98,0.00,,,1.07,Wunderground v.1.15,2013-09-24 23:15:00,
2013-09-24 19:25:00,70.8,70.2,29.86,SE,144,0.0,0.0,98,0.17,,,1.10,Wunderground v.1.15,2013-09-24 23:25:00,
2013-09-24 19:30:00,70.8,70.2,29.87,SE,144,0.0,0.0,98,0.10,,,1.11,Wunderground v.1.15,2013-09-24 23:30:00,
2013-09-24 19:40:00,70.8,70.2,29.87,SE,144,0.0,0.0,98,0.56,,,1.14,Wunderground v.1.15,2013-09-24 23:40:00,
2013-09-24 19:45:00,70.8,70.2,29.87,SE,144,0.0,0.0,98,0.18,,,1.16,Wunderground v.1.15,2013-09-24 23:45:00,
2013-09-24 19:55:00,70.9,70.3,29.85,SE,144,0.0,0.0,98,0.05,,,1.16,Wunderground v.1.15,2013-09-24 23:55:00,
2013-09-24 20:00:00,70.8,70.2,29.86,SE,144,0.0,0.0,98,0.04,,,1.16,Wunderground v.1.15,2013-09-25 00:00:00,
2013-09-24 20:10:00,70.9,70.3,29.86,SE,144,0.0,0.0,98,0.00,,,1.17,Wunderground v.1.15,2013-09-25 00:10:00,
2013-09-24 20:15:00,70.9,70.6,29.85,SE,144,0.0,0.0,99,0.00,,,1.17,Wunderground v.1.15,2013-09-25 00:15:00,
2013-09-24 20:25:00,71.0,70.7,29.85,SE,144,0.0,0.0,99,0.00,,,1.17,Wunderground v.1.15,2013-09-25 00:25:00,
2013-09-24 20:30:00,71.0,70.7,29.84,SE,144,0.0,0.0,99,0.00,,,1.17,Wunderground v.1.15,2013-09-25 00:30:00,
2013-09-24 20:40:00,71.0,70.7,29.85,SE,144,0.0,0.0,99,0.00,,,1.17,Wunderground v.1.15,2013-09-25 00:40:00,
2013-09-24 20:45:00,71.1,70.8,29.85,SE,144,0.0,0.0,99,0.00,,,1.17,Wunderground v.1.15,2013-09-25 00:45:00,
2013-09-24 20:55:00,71.1,70.8,29.85,SE,144,0.0,0.0,99,0.00,,,1.17,Wunderground v.1.15,2013-09-25 00:55:00,
2013-09-24 21:00:00,71.1,70.8,29.85,SE,144,0.0,0.0,99,0.00,,,1.17,Wunderground v.1.15,2013-09-25 01:00:00,
2013-09-24 21:10:00,71.1,70.8,29.85,SE,144,0.0,0.0,99,0.00,,,1.17,Wunderground v.1.15,2013-09-25 01:10:00,
2013-09-24 21:15:00,71.1,70.8,29.85,SSW,205,0.0,0.0,99,0.00,,,1.17,Wunderground v.1.15,2013-09-25 01:15:00,
2013-09-24 21:20:00,71.1,70.8,29.85,SSW,205,0.0,0.0,99,0.00,,,1.17,Wunderground v.1.15,2013-09-25 01:20:00,
2013-09-24 21:25:00,71.2,70.9,29.85,SSW,205,0.0,0.0,99,0.00,,,1.17,Wunderground v.1.15,2013-09-25 01:25:00,
2013-09-24 21:35:00,71.2,70.9,29.85,SSW,205,0.0,0.0,99,0.00,,,1.17,Wunderground v.1.15,2013-09-25 01:35:00,
2013-09-24 21:45:00,71.2,70.9,29.85,SSW,209,0.0,0.0,99,0.00,,,1.17,Wunderground v.1.15,2013-09-25 01:45:00,
2013-09-24 21:50:00,71.3,71.0,29.85,SSW,199,0.0,0.0,99,0.00,,,1.17,Wunderground v.1.15,2013-09-25 01:50:00,
2013-09-24 22:00:00,71.3,71.0,29.84,SW,215,0.0,0.0,99,0.00,,,1.17,Wunderground v.1.15,2013-09-25 02:00:00,
2013-09-24 22:05:00,71.3,71.0,29.84,SSE,149,0.0,0.0,99,0.00,,,1.17,Wunderground v.1.15,2013-09-25 02:05:00,
2013-09-24 22:10:00,71.3,71.0,29.84,SSW,210,0.0,1.0,99,0.00,,,1.17,Wunderground v.1.15,2013-09-25 02:10:00,
2013-09-24 22:20:00,71.3,71.0,29.84,South,191,0.0,0.0,99,0.00,,,1.17,Wunderground v.1.15,2013-09-25 02:20:00,
2013-09-24 22:25:00,71.3,71.0,29.84,South,191,0.0,0.0,99,0.00,,,1.17,Wunderground v.1.15,2013-09-25 02:25:00,
2013-09-24 22:35:00,71.3,71.0,29.84,South,184,0.0,0.0,99,0.00,,,1.17,Wunderground v.1.15,2013-09-25 02:35:00,
2013-09-24 22:45:00,71.4,71.1,29.84,South,184,0.0,0.0,99,0.00,,,1.17,Wunderground v.1.15,2013-09-25 02:45:00,
2013-09-24 22:50:00,71.4,71.1,29.84,South,184,0.0,0.0,99,0.00,,,1.17,Wunderground v.1.15,2013-09-25 02:50:00,
2013-09-24 23:00:00,71.5,71.2,29.84,South,184,0.0,0.0,99,0.00,,,1.17,Wunderground v.1.15,2013-09-25 03:00:00,
2013-09-24 23:10:00,71.5,71.2,29.84,South,184,0.0,0.0,99,0.00,,,1.17,Wunderground v.1.15,2013-09-25 03:10:00,
2013-09-24 23:15:00,71.5,71.2,29.84,South,184,0.0,0.0,99,0.00,,,1.17,Wunderground v.1.15,2013-09-25 03:15:00,
2013-09-24 23:25:00,71.7,71.4,29.84,South,184,0.0,0.0,99,0.00,,,1.17,Wunderground v.1.15,2013-09-25 03:25:00,
2013-09-24 23:35:00,71.9,71.9,29.83,South,184,0.0,0.0,100,0.00,,,1.17,Wunderground v.1.15,2013-09-25 03:35:00,
2013-09-24 23:40:00,72.0,72.0,29.83,South,184,0.0,0.0,100,0.00,,,1.17,Wunderground v.1.15,2013-09-25 03:40:00,
2013-09-24 23:50:00,72.1,72.1,29.84,South,184,0.0,0.0,100,0.00,,,1.17,Wunderground v.1.15,2013-09-25 03:50:00,